Time,TemperatureF,DewpointF,PressureIn,WindDirection,WindDirectionDegrees,WindSpeedMPH,WindSpeedGustMPH,Humidity,HourlyPrecipIn,Conditions,Clouds,dailyrainin,SoftwareType,DateUTC
2013-09-05 00:06:00,67.7,51.0,29.80,WSW,246,0.0,0.0,56,0.00,,,0.00,weatherlink.com 1.10,2013-09-05 06:06:00,
2013-09-05 00:21:00,66.6,52.0,29.81,WSW,246,0.0,0.0,59,0.00,,,0.00,weatherlink.com 1.10,2013-09-05 06:21:00,
2013-09-05 00:36:00,67.8,51.0,29.81,WNW,283,0.0,1.0,56,0.00,,,0.00,weatherlink.com 1.10,2013-09-05 06:36:00,
2013-09-05 00:51:00,68.9,50.0,29.82,NE,53,0.0,2.0,52,0.00,,,0.00,weatherlink.com 1.10,2013-09-05 06:51:00,
2013-09-05 01:06:00,67.8,50.0,29.82,NE,53,0.0,0.0,54,0.00,,,0.00,weatherlink.com 1.10,2013-09-05 07:06:00,
2013-09-05 01:21:00,66.4,51.0,29.82,NE,53,0.0,0.0,57,0.00,,,0.00,weatherlink.com 1.10,2013-09-05 07:21:00,
2013-09-05 01:36:00,65.6,51.0,29.83,NE,53,0.0,0.0,59,0.00,,,0.00,weatherlink.com 1.10,2013-09-05 07:36:00,
2013-09-05 01:51:00,64.9,50.0,29.82,NE,52,0.0,0.0,59,0.00,,,0.00,weatherlink.com 1.10,2013-09-05 07:51:00,
2013-09-05 02:06:00,64.6,51.0,29.82,NE,52,0.0,0.0,61,0.00,,,0.00,weatherlink.com 1.10,2013-09-05 08:06:00,
2013-09-05 02:21:00,64.1,51.0,29.82,NE,53,0.0,0.0,62,0.00,,,0.00,weatherlink.com 1.10,2013-09-05 08:21:00,
2013-09-05 02:36:00,63.8,50.0,29.83,NE,53,0.0,0.0,62,0.00,,,0.00,weatherlink.com 1.10,2013-09-05 08:36:00,
2013-09-05 02:51:00,63.6,50.0,29.83,ENE,57,0.0,0.0,62,0.00,,,0.00,weatherlink.com 1.10,2013-09-05 08:51:00,
2013-09-05 03:06:00,63.1,50.0,29.83,ENE,57,0.0,0.0,62,0.00,,,0.00,weatherlink.com 1.10,2013-09-05 09:06:00,
2013-09-05 03:21:00,63.7,49.0,29.83,SSW,206,0.0,2.0,59,0.00,,,0.00,weatherlink.com 1.10,2013-09-05 09:21:00,
2013-09-05 03:36:00,64.1,49.0,29.83,SSW,213,0.0,1.0,59,0.00,,,0.00,weatherlink.com 1.10,2013-09-05 09:36:00,
2013-09-05 03:51:00,64.5,49.0,29.84,SSW,212,0.0,1.0,58,0.00,,,0.00,weatherlink.com 1.10,2013-09-05 09:51:00,
2013-09-05 04:06:00,64.0,50.0,29.84,SSW,212,0.0,1.0,60,0.00,,,0.00,weatherlink.com 1.10,2013-09-05 10:06:00,
2013-09-05 04:21:00,63.7,49.0,29.84,West,264,0.0,0.0,60,0.00,,,0.00,weatherlink.com 1.10,2013-09-05 10:21:00,
2013-09-05 04:36:00,64.3,49.0,29.83,West,267,0.0,1.0,58,0.00,,,0.00,weatherlink.com 1.10,2013-09-05 10:36:00,
2013-09-05 04:51:00,65.8,49.0,29.84,NW,326,0.0,4.0,56,0.00,,,0.00,weatherlink.com 1.10,2013-09-05 10:51:00,
2013-09-05 05:06:00,66.0,50.0,29.84,West,276,1.0,2.0,57,0.00,,,0.00,weatherlink.com 1.10,2013-09-05 11:06:00,
2013-09-05 05:21:00,66.3,50.0,29.84,West,274,1.0,2.0,56,0.00,,,0.00,weatherlink.com 1.10,2013-09-05 11:21:00,
2013-09-05 05:37:00,66.6,50.0,29.84,WSW,256,0.0,1.0,55,0.00,,,0.00,weatherlink.com 1.10,2013-09-05 11:37:00,
2013-09-05 05:52:00,65.6,50.0,29.84,WSW,255,0.0,0.0,58,0.00,,,0.00,weatherlink.com 1.10,2013-09-05 11:52:00,
2013-09-05 06:07:00,64.5,50.0,29.85,East,81,0.0,0.0,60,0.00,,,0.00,weatherlink.com 1.10,2013-09-05 12:07:00,
2013-09-05 06:22:00,63.2,51.0,29.85,East,81,0.0,0.0,64,0.00,,,0.00,weatherlink.com 1.10,2013-09-05 12:22:00,
2013-09-05 06:37:00,62.1,51.0,29.86,East,81,0.0,0.0,66,0.00,,,0.00,weatherlink.com 1.10,2013-09-05 12:37:00,
2013-09-05 06:52:00,61.5,50.0,29.86,East,81,0.0,0.0,67,0.00,,,0.00,weatherlink.com 1.10,2013-09-05 12:52:00,
2013-09-05 07:07:00,61.6,50.0,29.86,East,81,0.0,0.0,66,0.00,,,0.00,weatherlink.com 1.10,2013-09-05 13:07:00,
2013-09-05 07:22:00,63.2,51.0,29.86,SW,221,0.0,2.0,64,0.00,,,0.00,weatherlink.com 1.10,2013-09-05 13:22:00,
2013-09-05 07:37:00,63.8,51.0,29.86,South,187,0.0,0.0,64,0.00,,,0.00,weatherlink.com 1.10,2013-09-05 13:37:00,
2013-09-05 07:52:00,64.0,51.0,29.86,South,187,0.0,0.0,63,0.00,,,0.00,weatherlink.com 1.10,2013-09-05 13:52:00,
2013-09-05 08:07:00,64.6,52.0,29.86,South,187,0.0,0.0,64,0.00,,,0.00,weatherlink.com 1.10,2013-09-05 14:07:00,
2013-09-05 08:22:00,65.4,52.0,29.86,South,187,0.0,0.0,62,0.00,,,0.00,weatherlink.com 1.10,2013-09-05 14:22:00,
2013-09-05 08:37:00,66.4,52.0,29.85,SW,219,0.0,1.0,60,0.00,,,0.00,weatherlink.com 1.10,2013-09-05 14:37:00,
2013-09-05 08:52:00,67.4,52.0,29.85,SW,229,0.0,2.0,59,0.00,,,0.00,weatherlink.com 1.10,2013-09-05 14:52:00,
2013-09-05 09:07:00,68.5,52.0,29.85,SW,217,0.0,3.0,57,0.00,,,0.00,weatherlink.com 1.10,2013-09-05 15:07:00,
2013-09-05 09:22:00,69.9,54.0,29.85,SSE,158,0.0,1.0,57,0.00,,,0.00,weatherlink.com 1.10,2013-09-05 15:22:00,
2013-09-05 09:37:00,71.9,55.0,29.84,East,91,0.0,1.0,56,0.00,,,0.00,weatherlink.com 1.10,2013-09-05 15:37:00,
2013-09-05 09:52:00,73.1,54.0,29.85,ENE,74,1.0,2.0,52,0.00,,,0.00,weatherlink.com 1.10,2013-09-05 15:52:00,
2013-09-05 10:07:00,74.4,56.0,29.84,East,88,1.0,2.0,52,0.00,,,0.00,weatherlink.com 1.10,2013-09-05 16:07:00,
2013-09-05 10:22:00,77.2,55.0,29.84,East,95,3.0,4.0,46,0.00,,,0.00,weatherlink.com 1.10,2013-09-05 16:22:00,
2013-09-05 10:37:00,77.8,55.0,29.84,East,84,6.0,6.0,45,0.00,,,0.00,weatherlink.com 1.10,2013-09-05 16:37:00,
2013-09-05 10:52:00,78.3,55.0,29.84,SE,145,0.0,5.0,45,0.00,,,0.00,weatherlink.com 1.10,2013-09-05 16:52:00,
2013-09-05 11:07:00,80.5,55.0,29.84,East,91,1.0,3.0,41,0.00,,,0.00,weatherlink.com 1.10,2013-09-05 17:07:00,
2013-09-05 11:22:00,81.7,56.0,29.83,NNE,26,3.0,3.0,41,0.00,,,0.00,weatherlink.com 1.10,2013-09-05 17:22:00,
2013-09-05 11:37:00,82.8,55.0,29.82,NE,34,0.0,3.0,39,0.00,,,0.00,weatherlink.com 1.10,2013-09-05 17:37:00,
2013-09-05 11:52:00,84.5,54.0,29.82,NNE,25,1.0,4.0,35,0.00,,,0.00,weatherlink.com 1.10,2013-09-05 17:52:00,
2013-09-05 12:07:00,85.7,57.0,29.81,ESE,104,0.0,5.0,37,0.00,,,0.00,weatherlink.com 1.10,2013-09-05 18:07:00,
2013-09-05 12:23:00,86.7,54.0,29.81,East,84,2.0,4.0,33,0.00,,,0.00,weatherlink.com 1.10,2013-09-05 18:23:00,
2013-09-05 12:38:00,88.2,56.0,29.80,West,276,1.0,3.0,34,0.00,,,0.00,weatherlink.com 1.10,2013-09-05 18:38:00,
2013-09-05 12:53:00,88.5,55.0,29.79,NNE,30,2.0,5.0,32,0.00,,,0.00,weatherlink.com 1.10,2013-09-05 18:53:00,
2013-09-05 13:08:00,88.6,53.0,29.78,East,94,2.0,6.0,29,0.00,,,0.00,weatherlink.com 1.10,2013-09-05 19:08:00,
2013-09-05 13:23:00,89.0,54.0,29.78,WNW,293,4.0,7.0,30,0.00,,,0.00,weatherlink.com 1.10,2013-09-05 19:23:00,
2013-09-05 13:38:00,89.4,54.0,29.77,North,357,2.0,9.0,30,0.00,,,0.00,weatherlink.com 1.10,2013-09-05 19:38:00,
2013-09-05 13:53:00,90.5,51.0,29.77,ENE,77,1.0,9.0,26,0.00,,,0.00,weatherlink.com 1.10,2013-09-05 19:53:00,
2013-09-05 14:08:00,91.2,53.0,29.77,NW,316,0.0,6.0,27,0.00,,,0.00,weatherlink.com 1.10,2013-09-05 20:08:00,
2013-09-05 14:23:00,89.7,51.0,29.76,WNW,290,2.0,5.0,26,0.00,,,0.00,weatherlink.com 1.10,2013-09-05 20:23:00,
2013-09-05 14:38:00,90.5,53.0,29.76,NE,37,3.0,5.0,28,0.00,,,0.00,weatherlink.com 1.10,2013-09-05 20:38:00,
2013-09-05 14:53:00,92.5,51.0,29.75,North,11,1.0,9.0,24,0.00,,,0.00,weatherlink.com 1.10,2013-09-05 20:53:00,
2013-09-05 15:08:00,93.5,52.0,29.74,NNE,32,4.0,6.0,24,0.00,,,0.00,weatherlink.com 1.10,2013-09-05 21:08:00,
2013-09-05 15:23:00,93.0,50.0,29.74,NNE,27,4.0,7.0,23,0.00,,,0.00,weatherlink.com 1.10,2013-09-05 21:23:00,
2013-09-05 15:38:00,91.5,51.0,29.74,NNE,30,2.0,6.0,25,0.00,,,0.00,weatherlink.com 1.10,2013-09-05 21:38:00,
2013-09-05 15:53:00,92.2,52.0,29.74,NW,311,8.0,8.0,25,0.00,,,0.00,weatherlink.com 1.10,2013-09-05 21:53:00,
2013-09-05 16:08:00,92.4,53.0,29.73,WNW,296,3.0,7.0,26,0.00,,,0.00,weatherlink.com 1.10,2013-09-05 22:08:00,
2013-09-05 16:23:00,92.7,51.0,29.73,NNW,328,2.0,7.0,24,0.00,,,0.00,weatherlink.com 1.10,2013-09-05 22:23:00,
2013-09-05 16:38:00,93.0,51.0,29.73,NW,322,2.0,7.0,24,0.00,,,0.00,weatherlink.com 1.10,2013-09-05 22:38:00,
2013-09-05 16:53:00,92.7,49.0,29.73,NW,316,2.0,10.0,22,0.00,,,0.00,weatherlink.com 1.10,2013-09-05 22:53:00,
2013-09-05 17:08:00,93.2,50.0,29.73,NNE,20,4.0,9.0,23,0.00,,,0.00,weatherlink.com 1.10,2013-09-05 23:08:00,
2013-09-05 17:23:00,92.5,48.0,29.73,WNW,299,0.0,7.0,22,0.00,,,0.00,weatherlink.com 1.10,2013-09-05 23:23:00,
2013-09-05 17:38:00,90.0,50.0,29.74,SW,228,2.0,5.0,25,0.00,,,0.00,weatherlink.com 1.10,2013-09-05 23:38:00,
2013-09-05 17:53:00,88.8,49.0,29.74,SSE,149,3.0,5.0,25,0.00,,,0.00,weatherlink.com 1.10,2013-09-05 23:53:00,
2013-09-05 18:08:00,86.6,52.0,29.74,ENE,63,0.0,2.0,30,0.00,,,0.00,weatherlink.com 1.10,2013-09-06 00:08:00,
2013-09-05 18:23:00,83.2,52.0,29.75,NNW,330,1.0,6.0,34,0.00,,,0.00,weatherlink.com 1.10,2013-09-06 00:23:00,
2013-09-05 18:38:00,81.8,51.0,29.75,NE,37,0.0,9.0,34,0.00,,,0.00,weatherlink.com 1.10,2013-09-06 00:38:00,
2013-09-05 18:53:00,82.3,51.0,29.75,NE,43,1.0,5.0,34,0.00,,,0.00,weatherlink.com 1.10,2013-09-06 00:53:00,
2013-09-05 19:08:00,81.6,56.0,29.76,SSW,212,0.0,2.0,42,0.00,,,0.00,weatherlink.com 1.10,2013-09-06 01:08:00,
2013-09-05 19:23:00,77.6,57.0,29.76,WSW,242,0.0,1.0,49,0.00,,,0.00,weatherlink.com 1.10,2013-09-06 01:23:00,
2013-09-05 19:38:00,77.9,51.0,29.76,WSW,242,0.0,1.0,39,0.00,,,0.00,weatherlink.com 1.10,2013-09-06 01:38:00,
2013-09-05 19:53:00,77.8,56.0,29.76,WSW,242,0.0,0.0,48,0.00,,,0.00,weatherlink.com 1.10,2013-09-06 01:53:00,
2013-09-05 20:08:00,77.9,54.0,29.76,WSW,242,0.0,1.0,43,0.00,,,0.00,weatherlink.com 1.10,2013-09-06 02:08:00,
2013-09-05 20:23:00,78.0,54.0,29.77,WSW,242,0.0,0.0,44,0.00,,,0.00,weatherlink.com 1.10,2013-09-06 02:23:00,
2013-09-05 20:38:00,78.4,53.0,29.77,WNW,283,0.0,1.0,41,0.00,,,0.00,weatherlink.com 1.10,2013-09-06 02:38:00,
2013-09-05 20:53:00,78.4,51.0,29.77,NW,306,0.0,0.0,39,0.00,,,0.00,weatherlink.com 1.10,2013-09-06 02:53:00,
2013-09-05 21:08:00,77.4,52.0,29.77,WSW,240,0.0,1.0,42,0.00,,,0.00,weatherlink.com 1.10,2013-09-06 03:08:00,
2013-09-05 21:23:00,77.4,53.0,29.77,West,269,0.0,1.0,43,0.00,,,0.00,weatherlink.com 1.10,2013-09-06 03:23:00,
2013-09-05 21:38:00,76.2,53.0,29.77,West,270,0.0,0.0,45,0.00,,,0.00,weatherlink.com 1.10,2013-09-06 03:38:00,
2013-09-05 21:53:00,74.9,54.0,29.77,West,269,0.0,0.0,49,0.00,,,0.00,weatherlink.com 1.10,2013-09-06 03:53:00,
2013-09-05 22:08:00,73.5,54.0,29.77,West,269,0.0,0.0,51,0.00,,,0.00,weatherlink.com 1.10,2013-09-06 04:08:00,
2013-09-05 22:23:00,72.1,53.0,29.77,West,269,0.0,0.0,52,0.00,,,0.00,weatherlink.com 1.10,2013-09-06 04:23:00,
2013-09-05 22:38:00,71.3,54.0,29.77,West,269,0.0,0.0,54,0.00,,,0.00,weatherlink.com 1.10,2013-09-06 04:38:00,
2013-09-05 22:53:00,70.6,54.0,29.77,West,267,0.0,1.0,57,0.00,,,0.00,weatherlink.com 1.10,2013-09-06 04:53:00,
2013-09-05 23:08:00,70.2,55.0,29.76,West,267,0.0,0.0,58,0.00,,,0.00,weatherlink.com 1.10,2013-09-06 05:08:00,
2013-09-05 23:23:00,70.6,54.0,29.76,West,267,0.0,1.0,56,0.00,,,0.00,weatherlink.com 1.10,2013-09-06 05:23:00,
2013-09-05 23:38:00,69.5,54.0,29.76,West,267,0.0,0.0,58,0.00,,,0.00,weatherlink.com 1.10,2013-09-06 05:38:00,
2013-09-05 23:53:00,68.8,54.0,29.76,West,266,0.0,0.0,59,0.00,,,0.00,weatherlink.com 1.10,2013-09-06 05:53:00,